sat.trackr.live / text

‹ back to catalog

STARLINK-32859

NORAD 62861 · 2025-022H

PAYLOAD ACTIVE UNKNOWN

§ Identity

Operator
Country
US
Launch date
2025-02-01
Launch site
AFWTR
Launch vehicle
Mass (kg)
RCS (m²)

Purposes: comms

External: N2YO · Heavens-Above · Gunter

§ Orbital elements

Epoch: 2026-09-21T17:06:31.712256Z

Period
93.85 min
Inclination
53.1610°
Eccentricity
0.0000480
Mean motion
15.34403298 rev/d
Perigee alt
462.4 km
Apogee alt
463.0 km
Semi-major
6,840.8 km
B*
3.4177e-4
RAAN
296.1653°
Arg perigee
69.0151°
Mean anomaly
291.0903°
Rev number
9,195

§ Raw data

STARLINK-328591 62861U 25022H   26264.71286704  .00011190  00000+0  34177-3 0  99952 62861  53.1610 296.1653 0000480  69.0151 291.0903 15.34403298 91954

JSON: /api/v1/satellites/62861 · /tle

For live sub-satellite position, see the globe view (requires WebGL).

§ Visibility from observer

Set your observer location to see the next 7 days of passes ≥ 10°. The values pass through the URL so the page stays shareable.

No JS? Fill the form by hand. The geolocation button needs JavaScript.